When you browse on this site, cookies collect data to enhance your experience and personalize the content and advertising you see.
Visit our Privacy Policy to learn more. By continuing to use the site, you agree to this use of cookies and data.
  • en France
  • Liste des pays
  • À 7 jours
  • Température de l'eau
  • Carte satellitaire
  • Carte météo
  • Widgets météo
  • user-avatar
    Se connecter

    Météo par heure à Smolyan

    Ce jour, 25 Mai, Samedi

    Heure Température Précipitation Vent Pression Humidité
    00:00 +8°C° 0.1 mm 1 m/s 651 mmHg 94%
    01:00 +8°C° 0.1 mm 1 m/s 651 mmHg 94%
    02:00 +7°C° 0.1 mm 1 m/s 651 mmHg 94%
    03:00 +7°C° 0 mm 1 m/s 651 mmHg 94%
    04:00 +7°C° 0 mm 1 m/s 651 mmHg 93%
    05:00 +7°C° 0 mm 1 m/s 651 mmHg 93%
    06:00 +9°C° 0 mm 1 m/s 652 mmHg 87%
    07:00 +11°C° 0 mm 1 m/s 653 mmHg 81%
    08:00 +13°C° 0 mm 0 m/s 654 mmHg 74%
    09:00 +15°C° 0.3 mm 1 m/s 654 mmHg 70%
    10:00 +16°C° 0.3 mm 1 m/s 655 mmHg 67%
    11:00 +18°C° 0.3 mm 1 m/s 655 mmHg 63%
    12:00 +16°C° 1.7 mm 1 m/s 655 mmHg 68%
    13:00 +16°C° 1.7 mm 1 m/s 655 mmHg 73%
    14:00 +16°C° 1.7 mm 1 m/s 655 mmHg 78%
    15:00 +16°C° 2.3 mm 1 m/s 654 mmHg 79%
    16:00 +15°C° 2.3 mm 1 m/s 654 mmHg 80%
    17:00 +15°C° 2.3 mm 1 m/s 654 mmHg 81%
    18:00 +13°C° 0.8 mm 1 m/s 654 mmHg 85%
    19:00 +12°C° 0.8 mm 1 m/s 653 mmHg 88%
    20:00 +10°C° 0.8 mm 1 m/s 653 mmHg 91%
    21:00 +10°C° 0 mm 1 m/s 653 mmHg 91%
    22:00 +9°C° 0 mm 1 m/s 653 mmHg 91%
    23:00 +9°C° 0 mm 1 m/s 654 mmHg 90%

    Demain, 26 Mai, Dimanche

    Heure Température Précipitation Vent Pression Humidité
    00:00 +9°C° 0 mm 1 m/s 654 mmHg 90%
    01:00 +9°C° 0 mm 1 m/s 654 mmHg 90%
    02:00 +9°C° 0 mm 1 m/s 654 mmHg 89%
    03:00 +9°C° 0 mm 1 m/s 654 mmHg 89%
    04:00 +9°C° 0 mm 1 m/s 654 mmHg 89%
    05:00 +9°C° 0 mm 1 m/s 654 mmHg 89%
    06:00 +11°C° 0 mm 1 m/s 655 mmHg 83%
    07:00 +13°C° 0 mm 1 m/s 656 mmHg 78%
    08:00 +16°C° 0 mm 1 m/s 657 mmHg 72%
    09:00 +18°C° 0 mm 1 m/s 657 mmHg 66%
    10:00 +19°C° 0 mm 1 m/s 658 mmHg 61%
    11:00 +20°C° 0 mm 2 m/s 658 mmHg 55%
    12:00 +19°C° 0.2 mm 2 m/s 658 mmHg 59%
    13:00 +19°C° 0.2 mm 2 m/s 658 mmHg 64%
    14:00 +18°C° 0.2 mm 2 m/s 657 mmHg 68%
    15:00 +18°C° 0.3 mm 2 m/s 657 mmHg 71%
    16:00 +18°C° 0.3 mm 2 m/s 657 mmHg 74%
    17:00 +17°C° 0.3 mm 2 m/s 656 mmHg 77%
    18:00 +16°C° 0.3 mm 1 m/s 656 mmHg 82%
    19:00 +14°C° 0.3 mm 1 m/s 656 mmHg 88%
    20:00 +13°C° 0.3 mm 1 m/s 655 mmHg 94%
    21:00 +12°C° 0 mm 1 m/s 655 mmHg 94%
    22:00 +12°C° 0 mm 1 m/s 655 mmHg 94%
    23:00 +11°C° 0 mm 1 m/s 655 mmHg 94%

    Après-demain, 27 Mai, Lundi

    Heure Température Précipitation Vent Pression Humidité
    00:00 +11°C° 0 mm 1 m/s 655 mmHg 94%
    01:00 +11°C° 0 mm 1 m/s 655 mmHg 93%
    02:00 +11°C° 0 mm 1 m/s 655 mmHg 92%
    03:00 +11°C° 0 mm 1 m/s 655 mmHg 92%
    04:00 +10°C° 0 mm 1 m/s 655 mmHg 91%
    05:00 +10°C° 0 mm 1 m/s 655 mmHg 91%
    06:00 +12°C° 0 mm 1 m/s 656 mmHg 81%
    07:00 +15°C° 0 mm 1 m/s 656 mmHg 72%
    08:00 +18°C° 0 mm 1 m/s 657 mmHg 62%
    09:00 +19°C° 0 mm 1 m/s 658 mmHg 55%
    10:00 +20°C° 0 mm 2 m/s 658 mmHg 47%
    11:00 +21°C° 0 mm 2 m/s 658 mmHg 40%
    12:00 +21°C° 0 mm 2 m/s 658 mmHg 41%
    13:00 +22°C° 0 mm 3 m/s 658 mmHg 42%
    14:00 +22°C° 0 mm 3 m/s 658 mmHg 43%
    15:00 +21°C° 0 mm 3 m/s 657 mmHg 47%
    16:00 +21°C° 0 mm 2 m/s 657 mmHg 52%
    17:00 +20°C° 0 mm 2 m/s 656 mmHg 56%
    18:00 +18°C° 0 mm 2 m/s 656 mmHg 64%
    19:00 +16°C° 0 mm 1 m/s 655 mmHg 72%
    20:00 +14°C° 0 mm 1 m/s 654 mmHg 81%
    21:00 +13°C° 0 mm 1 m/s 654 mmHg 73%
    22:00 +12°C° 0 mm 1 m/s 654 mmHg 65%
    23:00 +12°C° 0 mm 1 m/s 654 mmHg 58%

    28 Mai, Mardi

    Heure Température Précipitation Vent Pression Humidité
    00:00 +12°C° 0 mm 1 m/s 654 mmHg 54%
    01:00 +11°C° 0 mm 1 m/s 653 mmHg 49%
    02:00 +11°C° 0 mm 1 m/s 653 mmHg 45%
    03:00 +11°C° 0 mm 1 m/s 653 mmHg 47%
    04:00 +11°C° 0 mm 1 m/s 653 mmHg 48%
    05:00 +11°C° 0 mm 1 m/s 653 mmHg 49%
    06:00 +13°C° 0 mm 2 m/s 653 mmHg 50%
    07:00 +16°C° 0 mm 2 m/s 654 mmHg 50%
    08:00 +18°C° 0 mm 2 m/s 655 mmHg 50%
    09:00 +19°C° 0 mm 3 m/s 655 mmHg 48%
    10:00 +20°C° 0 mm 4 m/s 655 mmHg 45%
    11:00 +21°C° 0 mm 5 m/s 655 mmHg 42%
    12:00 +21°C° 0 mm 5 m/s 655 mmHg 43%
    13:00 +21°C° 0 mm 5 m/s 655 mmHg 43%
    14:00 +21°C° 0 mm 5 m/s 654 mmHg 43%
    15:00 +21°C° 0 mm 5 m/s 654 mmHg 45%
    16:00 +20°C° 0 mm 5 m/s 654 mmHg 47%
    17:00 +19°C° 0 mm 4 m/s 653 mmHg 49%
    18:00 +17°C° 0 mm 3 m/s 652 mmHg 62%
    19:00 +14°C° 0 mm 2 m/s 652 mmHg 75%
    20:00 +12°C° 0 mm 1 m/s 651 mmHg 88%
    21:00 +10°C° 0 mm 2 m/s 651 mmHg 88%
    22:00 +10°C° 0 mm 2 m/s 651 mmHg 87%
    23:00 +10°C° 0 mm 2 m/s 651 mmHg 87%

    29 Mai, Mercredi

    Heure Température Précipitation Vent Pression Humidité
    00:00 +10°C° 0 mm 2 m/s 651 mmHg 86%
    01:00 +10°C° 0 mm 2 m/s 651 mmHg 85%
    02:00 +10°C° 0 mm 2 m/s 651 mmHg 85%
    03:00 +9°C° 0 mm 2 m/s 651 mmHg 84%
    04:00 +9°C° 0 mm 2 m/s 652 mmHg 83%
    05:00 +10°C° 0 mm 1 m/s 652 mmHg 82%
    06:00 +13°C° 0 mm 1 m/s 653 mmHg 74%
    07:00 +15°C° 0 mm 1 m/s 654 mmHg 66%
    08:00 +19°C° 0 mm 1 m/s 655 mmHg 58%
    09:00 +20°C° 0 mm 1 m/s 655 mmHg 54%
    10:00 +22°C° 0 mm 1 m/s 656 mmHg 50%
    11:00 +23°C° 0 mm 2 m/s 656 mmHg 47%
    12:00 +23°C° 0 mm 2 m/s 656 mmHg 50%
    13:00 +21°C° 0 mm 2 m/s 656 mmHg 54%
    14:00 +21°C° 0 mm 2 m/s 656 mmHg 57%
    15:00 +21°C° 0.1 mm 2 m/s 656 mmHg 60%
    16:00 +20°C° 0.1 mm 2 m/s 655 mmHg 62%
    17:00 +20°C° 0.1 mm 2 m/s 655 mmHg 64%
    18:00 +19°C° 0.1 mm 1 m/s 655 mmHg 73%
    19:00 +16°C° 0.1 mm 1 m/s 654 mmHg 82%
    20:00 +14°C° 0.1 mm 1 m/s 654 mmHg 91%
    21:00 +14°C° 0 mm 1 m/s 654 mmHg 90%
    22:00 +13°C° 0 mm 1 m/s 654 mmHg 90%
    23:00 +13°C° 0 mm 1 m/s 655 mmHg 89%

    30 Mai, Jeudi

    Heure Température Précipitation Vent Pression Humidité
    00:00 +13°C° 0 mm 1 m/s 655 mmHg 87%
    01:00 +13°C° 0 mm 1 m/s 655 mmHg 85%
    02:00 +13°C° 0 mm 1 m/s 655 mmHg 83%
    03:00 +13°C° 0 mm 1 m/s 655 mmHg 82%
    04:00 +13°C° 0 mm 1 m/s 655 mmHg 82%
    05:00 +13°C° 0 mm 1 m/s 655 mmHg 82%
    06:00 +15°C° 0 mm 1 m/s 656 mmHg 76%
    07:00 +18°C° 0 mm 1 m/s 657 mmHg 70%
    08:00 +20°C° 0 mm 1 m/s 657 mmHg 64%
    09:00 +20°C° 0.5 mm 1 m/s 657 mmHg 66%
    10:00 +21°C° 0.5 mm 1 m/s 657 mmHg 67%
    11:00 +21°C° 0.5 mm 1 m/s 658 mmHg 69%
    12:00 +21°C° 1.7 mm 1 m/s 657 mmHg 69%
    13:00 +22°C° 1.7 mm 1 m/s 657 mmHg 70%
    14:00 +22°C° 1.7 mm 1 m/s 657 mmHg 70%
    15:00 +21°C° 1.7 mm 1 m/s 657 mmHg 71%
    16:00 +21°C° 1.7 mm 1 m/s 656 mmHg 73%
    17:00 +20°C° 1.7 mm 1 m/s 656 mmHg 74%
    18:00 +19°C° 0.9 mm 1 m/s 655 mmHg 80%
    19:00 +16°C° 0.9 mm 1 m/s 655 mmHg 85%
    20:00 +14°C° 0.9 mm 1 m/s 654 mmHg 90%
    21:00 +14°C° 0 mm 1 m/s 654 mmHg 91%
    22:00 +13°C° 0 mm 1 m/s 654 mmHg 91%
    23:00 +13°C° 0 mm 1 m/s 654 mmHg 92%
    Voir plus